Regional Weather Roundup
Issued by NWS

Home | Current Version | Previous Version | Graphics & Text | Print | Product List | Glossary On
Versions: 1 2 3 4 5 6 7 8 9 10 11 12 13 14 15 16 17 18 19 20 21 22 23 24 25 26 27 28 29 30 31 32 33 34 35 36 37 38 39 40 41 42 43 44 45 46 47 48 49 50
000
ASUS45 KPSR 251800
RWRAZ

PRELIMINARY ARIZONA REGIONAL HOURLY WEATHER ROUNDUP
NATIONAL WEATHER SERVICE PHOENIX AZ
1100 AM MST SAT OCT 25 2014

NOTE: FAIR INDICATES FEW OR NO CLOUDS BELOW 12,000 FEET WITH NO
SIGNIFICANT WEATHER AND/OR OBSTRUCTIONS TO VISIBILITY.

AZZ001>003-036-251900-
NORTHWEST ARIZONA

CITY           SKY/WX    TMP DP  RH WIND       PRES   REMARKS
KINGMAN        PTSUNNY   79  41  25 SW14G25   30.15F
6HR MIN TEMP:  57; 6HR MAX TEMP:  80;

$$

AZZ004>008-015-016-018-251900-
NORTH CENTRAL ARIZONA

CITY           SKY/WX    TMP DP  RH WIND       PRES   REMARKS
GRAND CANYON   SUNNY     69  41  36 SW15G24   30.35S
6HR MIN TEMP:  30; 6HR MAX TEMP:  69;

PRESCOTT       MOSUNNY   75  47  36 S14G20    30.26F
6HR MIN TEMP:  48; 6HR MAX TEMP:  75;

FLAGSTAFF      LGT RAIN  66  42  41 SW16G28   30.38S
6HR MIN TEMP:  36; 6HR MAX TEMP:  67; 6HR PCP: TRACE;

PAYSON         MOSUNNY   75  45  33 VRB6G12   30.30F
PAGE           MOSUNNY   67  35  30 N6        30.22F
6HR MIN TEMP:  53; 6HR MAX TEMP:  67;

$$

AZZ009>014-017-251900-
NORTHEAST ARIZONA

CITY           SKY/WX    TMP DP  RH WIND       PRES   REMARKS
WINSLOW        NOT AVBL
SAINT JOHNS    SUNNY     73  38  27 CALM      30.32F
6HR MIN TEMP:  40; 6HR MAX TEMP:  73;

WINDOW ROCK    SUNNY     72  37  28 SW10      30.37F
6HR MIN TEMP:  32; 6HR MAX TEMP:  72;

$$

AZZ023-251900-
GREATER PHOENIX AREA

CITY           SKY/WX    TMP DP  RH WIND       PRES   REMARKS
PHOENIX        MOSUNNY   87  49  26 E6        30.01F
6HR MIN TEMP:  70; 6HR MAX TEMP:  87;

GLENDALE       MOSUNNY   84  50  30 CALM      30.04F
DEER VALLEY    SUNNY     84  46  26 CALM      30.03F
6HR MIN TEMP:  67; 6HR MAX TEMP:  84;

SCOTTSDALE     MOSUNNY   85  49  28 CALM      30.05F
6HR MIN TEMP:  67; 6HR MAX TEMP:  85;

MESA-GATEWAY   MOSUNNY   81  50  34 CALM      30.05F
CHANDLER       MOSUNNY   82  50  32 N6        30.03F
$$

AZZ027-028-251900-
SOUTHWEST MARICOPA COUNTY AND PINAL COUNTY

CITY           SKY/WX    TMP DP  RH WIND       PRES   REMARKS
CASA GRANDE    SUNNY     84  48  28 CALM      30.05S
6HR MIN TEMP:  61; 6HR MAX TEMP:  84;

$$

AZZ503-504-507>509-251900-
SOUTHEAST ARIZONA

CITY           SKY/WX    TMP DP  RH WIND       PRES   REMARKS
TUCSON         SUNNY     88  46  23 E7        30.12F
6HR MIN TEMP:  64; 6HR MAX TEMP:  88;

DAVIS-MONTHAN  SUNNY     87  47  25 E5        30.11S
6HR MIN TEMP:  62; 6HR MAX TEMP:  87;

RYAN FIELD       N/A     88  50  27 E12       30.11F
NOGALES        SUNNY     83  48  29 CALM      30.20S
6HR MIN TEMP:  52; 6HR MAX TEMP:  83;

SIERRA VISTA   SUNNY     80  44  27 E5        30.26F
6HR MIN TEMP:  58; 6HR MAX TEMP:  80;

SAFFORD        SUNNY     77  44  30 VRB5      30.18F
6HR MIN TEMP:  53; 6HR MAX TEMP:  78;

$$

AZZ020-021-025-026-031-251900-
SOUTHWEST ARIZONA

CITY           SKY/WX    TMP DP  RH WIND       PRES   REMARKS
YUMA           SUNNY     89  47  23 VRB3      29.97S
6HR MIN TEMP:  73; 6HR MAX TEMP:  89;

$$

CAZ031-033-041-043-047-048-061-251900-
SOUTHERN CALIFORNIA

CITY           SKY/WX    TMP DP  RH WIND       PRES   REMARKS
DOWNTOWN L.A.  SUNNY     76  54  46 CALM      30.05R
6HR MIN TEMP:  61; 6HR MAX TEMP:  76;

L.A. AIRPORT   MOSUNNY   73  63  70 W10       30.06R
6HR MIN TEMP:  64; 6HR MAX TEMP:  73;

SAN DIEGO      PTSUNNY   73  63  70 VRB3      30.07F
6HR MIN TEMP:  67; 6HR MAX TEMP:  74;

BURBANK        SUNNY     76  43  30 SE6       30.06R
6HR MIN TEMP:  59; 6HR MAX TEMP:  76;

ONTARIO        MOSUNNY   78  42  27 VRB3      30.06S
6HR MIN TEMP:  64; 6HR MAX TEMP:  78;

RIVERSIDE      SUNNY     77  40  26 CALM      30.06F
6HR MIN TEMP:  63; 6HR MAX TEMP:  77;

PALM SPRINGS   SUNNY     88  48  25 E12       29.99S
6HR MIN TEMP:  68; 6HR MAX TEMP:  89;

EL CENTRO NAS  MOSUNNY   90  46  21 S3        29.97S
6HR MIN TEMP:  68; 6HR MAX TEMP:  90;

IMPERIAL       MOSUNNY   88  50  27 CALM      29.96F
6HR MIN TEMP:  68; 6HR MAX TEMP:  88;

BLYTHE         MOSUNNY   85  45  24 S3        30.00S
6HR MIN TEMP:  66; 6HR MAX TEMP:  85;

$$

NVZ020-UTZ003-251900-
SOUTHERN NEVADA-UTAH

CITY           SKY/WX    TMP DP  RH WIND       PRES   REMARKS
LAS VEGAS      NOT AVBL
SALT LAKE CITY MOSUNNY   74  31  20 S24G31    30.04F
6HR MIN TEMP:  54; 6HR MAX TEMP:  74; 6HR PCP: TRACE;

$$

NMZ009-TXZ055-251900-
NEW MEXICO-WEST TEXAS

CITY           SKY/WX    TMP DP  RH WIND       PRES   REMARKS
ALBUQUERQUE    SUNNY     69  37  30 S5        30.32F
6HR MIN TEMP:  50; 6HR MAX TEMP:  69;

EL PASO        SUNNY     77  50  38 CALM      30.24F
6HR MIN TEMP:  55; 6HR MAX TEMP:  77;

$$


........................KEY........................
SKY/WX - SKY CONDITION/WEATHER
TMP    - TEMPERATURE IN FAHRENHEIT
DP     - DEW POINT IN FAHRENHEIT
RH     - RELATIVE HUMIDITY IN PERCENT
WIND   - DIRECTION AND SPEED IN MILES PER HOUR (MPH)
VRB    - VARIABLE WIND DIRECTION
PRES   - MEAN SEA LEVEL PRESSURE IN INCHES OF MERCURY
         F - FALLING PRESSURE   R - RISING PRESSURE
         S - STEADY PRESSURE
VSB    - VISIBILITY IN MILES
HX     - HEAT INDEX IN FAHRENHEIT
WCI    - WIND CHILL INDEX IN FAHRENHEIT
TC     - TEMPERATURE IN CELSIUS WHICH IS ALSO KNOWN AS
         TEMPERATURE IN CENTIGRADE
AFB    - AIR FORCE BASE
         LUKE AFB IS LUKE AIR FORCE BASE
         DAVIS-MONTHAN IS DAVIS-MONTHAN AIR FORCE BASE
NAS    - NAVAL AIR STATION
         EL CENTRO NAS IS EL CENTRO NAVAL AIR STATION
N/A    - NOT AVAILABLE



USA.gov is the U.S. government's official web portal to all federal, state and local government web resources and services.